Location: Holyhead Bay
(53.3667°N, 4.6667°W)
Time: 06:58:59
(UTC+00:00)

H-2A R/B - Pass Details

Date: 24 November 2020
Orbit: 578 x 654 km, 98.5° (Epoch: 23 January)

Event Time Altitude Azimuth Distance (km) Brightness Sun altitude
Exits shadow 17:34:24 - 17° (NNE) 2,490 4.8 -12.0°
Reaches altitude 10° 17:35:46 10° 19° (NNE) 1,921 4.2 -12.2°
Maximum altitude 17:39:55 74° 104° (ESE) 623 1.9 -12.8°
Drops below altitude 10° 17:44:08 10° 190° (S) 1,941 5.0 -13.4°
Sets 17:46:19 0° 193° (SSW) 2,852 5.9 -13.7°
